GW1975 Weather Reports


Display with metric or nautical units.
time (UTC)temp
F
wind
direction
speed
MPH
gust
MPH
rain 1hr
in
rain 24hr
in
rain mn
in
humidity
%
barometer
mb
20260506110735 46 298 2.0 2.0 0.00 0.00 0.00 98 1017.0
20260506110242 46 141 2.0 3.0 0.00 0.00 0.00 98 1016.0
20260506105736 46 253 2.0 2.0 0.00 0.00 0.00 98 1016.0
20260506105237 46 37 1.0 3.0 0.00 0.00 0.00 98 1016.0
20260506104736 46 136 0.0 3.0 0.00 0.00 0.00 98 1016.0
20260506104236 46 314 1.0 3.0 0.00 0.00 0.00 98 1016.0
20260506103735 46 330 0.0 3.0 0.00 0.00 0.00 98 1015.0
20260506103236 46 301 2.0 2.0 0.00 0.00 0.00 98 1015.0
20260506102736 46 196 1.0 3.0 0.00 0.00 0.00 98 1016.0
20260506102235 46 284 1.0 3.0 0.00 0.00 0.00 98 1016.0
20260506101735 46 299 1.0 3.0 0.00 0.00 0.00 98 1016.0
20260506101235 46 281 2.0 3.0 0.00 0.00 0.00 98 1015.0
20260506100735 45 160 0.0 2.0 0.00 0.00 0.00 98 1016.0
20260506100236 46 206 1.0 3.0 0.00 0.00 0.00 98 1015.0
20260506095736 46 280 1.0 3.0 0.00 0.00 0.00 98 1016.0
20260506095235 46 253 0.0 4.0 0.00 0.00 0.00 98 1016.0
20260506094735 46 310 2.0 3.0 0.00 0.00 0.00 98 1015.0
20260506094236 46 324 1.0 3.0 0.00 0.00 0.00 98 1015.0
20260506093735 46 209 1.0 3.0 0.00 0.00 0.00 98 1016.0
20260506093236 46 174 1.0 3.0 0.00 0.00 0.00 98 1016.0
20260506092736 46 197 1.0 3.0 0.00 0.00 0.00 98 1015.0
20260506092236 46 314 0.0 3.0 0.00 0.00 0.00 98 1015.0
20260506091735 46 273 2.0 4.0 0.00 0.00 0.00 98 1016.0
20260506091235 46 59 2.0 3.0 0.00 0.00 0.00 98 1016.0
20260506090737 46 238 0.0 4.0 0.00 0.00 0.00 98 1016.0
20260506090235 46 2 1.0 3.0 0.00 0.00 0.00 98 1016.0
20260506085735 46 235 2.0 3.0 0.00 0.00 0.00 98 1016.0
20260506085236 46 77 2.0 3.0 0.00 0.00 0.00 98 1016.0
20260506084736 46 302 1.0 4.0 0.00 0.00 0.00 98 1016.0
20260506084236 46 359 2.0 4.0 0.00 0.00 0.00 98 1016.0
20260506083735 46 275 4.0 4.0 0.00 0.00 0.00 98 1015.0
20260506083236 46 283 1.0 3.0 0.00 0.00 0.00 98 1015.0
20260506082735 46 247 1.0 3.0 0.00 0.00 0.00 98 1015.0
20260506082236 46 267 1.0 4.0 0.00 0.00 0.00 98 1016.0
20260506081736 46 240 2.0 6.0 0.00 0.00 0.00 98 1015.0
20260506081235 46 314 3.0 5.0 0.00 0.00 0.00 98 1015.0
20260506080736 46 39 3.0 4.0 0.00 0.00 0.00 98 1015.0
20260506080236 46 196 2.0 5.0 0.00 0.00 0.00 98 1015.0
20260506073235 46 301 2.0 4.0 0.00 0.00 0.00 98 1015.0
20260506072736 46 309 2.0 5.0 0.00 0.00 0.00 98 1015.0
20260506072237 46 30 0.0 4.0 0.00 0.00 0.00 98 1015.0
20260506071736 46 16 1.0 3.0 0.00 0.00 0.00 97 1015.0
20260506071235 46 138 2.0 4.0 0.00 0.00 0.00 98 1015.0
20260506070737 46 12 1.0 3.0 0.00 0.00 0.00 98 1016.0
20260506070236 46 266 1.0 5.0 0.00 0.00 0.00 97 1015.0
20260506062236 46 338 1.0 5.0 0.00 0.00 0.00 97 1015.0
20260506061735 46 261 1.0 4.0 0.00 0.00 0.00 97 1015.0
20260506061235 46 231 2.0 4.0 0.00 0.00 0.00 97 1015.0
20260506060735 46 38 2.0 5.0 0.00 0.00 0.00 97 1015.0
20260506060236 46 150 3.0 5.0 0.00 0.00 0.00 97 1015.0
20260506051236 46 331 1.0 5.0 0.00 0.00 0.00 97 1015.0
20260506050736 46 235 5.0 7.0 0.00 0.00 0.00 97 1015.0
20260506050235 46 296 1.0 3.0 0.00 0.00 0.00 97 1015.0
20260506044735 46 158 2.0 3.0 0.00 0.00 0.00 97 1014.0
20260506044236 46 51 2.0 8.0 0.00 0.00 0.00 97 1015.0
20260506043736 45 195 3.0 5.0 0.00 0.00 0.00 97 1015.0
20260506043235 45 78 2.0 6.0 0.00 0.00 0.00 97 1014.0
20260506042735 45 124 2.0 7.0 0.00 0.00 0.00 97 1015.0
20260506042235 45 80 4.0 7.0 0.00 0.00 0.00 97 1015.0
20260506041735 45 219 3.0 6.0 0.00 0.00 0.00 97 1015.0
20260506041236 45 187 2.0 2.0 0.00 0.00 0.00 97 1015.0
20260506040735 45 239 1.0 8.0 0.00 0.00 0.00 97 1015.0
20260506040236 45 2 5.0 8.0 0.00 0.00 0.00 97 1015.0
20260506035735 45 178 1.0 3.0 0.00 0.00 0.00 97 1015.0
20260506035236 45 302 1.0 2.0 0.00 0.00 0.00 97 1015.0
20260506034735 45 274 2.0 2.0 0.00 0.00 0.00 97 1015.0
20260506034236 45 293 1.0 2.0 0.00 0.00 0.00 97 1015.0
20260506033737 45 304 1.0 2.0 0.00 0.00 0.00 96 1015.0
20260506033235 45 150 0.0 1.0 0.00 0.00 0.00 96 1015.0
20260506032736 45 228 0.0 2.0 0.00 0.00 0.00 96 1015.0
20260506032235 45 300 1.0 2.0 0.00 0.00 0.00 96 1015.0
20260506031735 45 50 0.0 0.0 0.00 0.00 0.00 96 1014.0
20260506031236 45 129 0.0 0.0 0.00 0.00 0.00 96 1015.0
20260506030735 45 249 0.0 1.0 0.00 0.00 0.00 96 1014.0
20260506030235 45 16 0.0 0.0 0.00 0.00 0.00 96 1014.0
20260506025736 45 126 0.0 1.0 0.00 0.00 0.00 96 1014.0
20260506025235 44 230 0.0 2.0 0.00 0.00 0.00 96 1014.0
20260506024735 45 16 1.0 2.0 0.00 0.00 0.00 96 1014.0
20260506024235 45 80 1.0 2.0 0.00 0.00 0.00 96 1014.0
20260506023735 45 51 0.0 1.0 0.00 0.00 0.00 96 1014.0
20260506023235 45 11 1.0 2.0 0.00 0.00 0.00 96 1014.0
20260506022736 45 261 0.0 2.0 0.00 0.00 0.00 96 1015.0
20260506022235 45 359 0.0 1.0 0.00 0.00 0.00 96 1014.0
20260506021735 45 346 1.0 1.0 0.00 0.00 0.00 96 1014.0
20260506021235 45 7 0.0 2.0 0.00 0.00 0.00 96 1014.0
20260506020736 45 5 0.0 2.0 0.00 0.00 0.00 95 1014.0
20260506020235 45 269 0.0 2.0 0.00 0.00 0.00 96 1014.0
20260506015735 45 113 0.0 1.0 0.00 0.00 0.00 95 1014.0
20260506015236 45 311 1.0 2.0 0.00 0.00 0.00 95 1014.0
20260506014736 45 310 1.0 2.0 0.00 0.00 0.00 95 1014.0
20260506014235 45 344 2.0 3.0 0.00 0.00 0.00 95 1014.0
20260506013736 45 283 0.0 2.0 0.00 0.00 0.00 95 1014.0
20260506013236 45 217 0.0 3.0 0.00 0.00 0.00 95 1014.0
20260506012736 45 39 2.0 3.0 0.00 0.00 0.00 95 1014.0
20260506012235 45 304 0.0 2.0 0.00 0.00 0.00 94 1014.0
20260506011735 45 89 0.0 2.0 0.00 0.00 0.00 94 1014.0
20260506011236 45 89 0.0 3.0 0.00 0.00 0.00 94 1014.0
20260506010735 45 18 3.0 5.0 0.00 0.00 0.00 94 1013.0
20260506010235 45 352 3.0 3.0 0.00 0.00 0.00 94 1014.0
20260506005736 45 132 0.0 4.0 0.00 0.00 0.00 94 1013.0
20260506005236 45 248 2.0 3.0 0.00 0.00 0.00 94 1014.0
20260506004736 45 42 4.0 5.0 0.00 0.00 0.00 94 1014.0
20260506004235 46 6 2.0 4.0 0.00 0.00 0.00 94 1013.0
20260506003735 46 320 3.0 5.0 0.00 0.00 0.00 94 1013.0
20260506003235 46 315 5.0 5.0 0.00 0.00 0.00 95 1013.0
20260506002736 46 334 3.0 3.0 0.00 0.00 0.00 94 1013.0
20260506002236 46 89 0.0 2.0 0.00 0.00 0.00 94 1013.0
20260506001735 46 9 0.0 7.0 0.00 0.00 0.00 94 1013.0
20260506001235 46 340 2.0 3.0 0.00 0.00 0.00 94 1013.0
20260506000736 46 258 0.0 3.0 0.00 0.00 0.00 94 1013.0
20260506000235 46 312 3.0 4.0 0.00 0.00 0.00 94 1013.0
20260505235735 46 0 2.0 5.0 0.00 0.00 0.00 94 1013.0
20260505235236 46 298 0.0 3.0 0.00 0.00 0.00 94 1013.0
20260505234735 46 262 0.0 4.0 0.00 0.00 0.00 94 1013.0
20260505234235 46 271 0.0 3.0 0.00 0.00 0.00 94 1013.0
20260505233736 46 2 2.0 3.0 0.00 0.00 0.00 94 1012.0
20260505233235 47 323 2.0 3.0 0.00 0.00 0.00 93 1012.0
20260505232735 47 14 3.0 3.0 0.00 0.00 0.00 93 1012.0
20260505232235 47 323 3.0 5.0 0.00 0.00 0.00 93 1013.0
20260505231736 47 294 1.0 4.0 0.00 0.00 0.00 92 1012.0
20260505231236 47 272 3.0 3.0 0.00 0.00 0.00 92 1012.0
20260505230735 47 293 2.0 5.0 0.00 0.00 0.00 92 1012.0
20260505230236 48 321 3.0 4.0 0.00 0.00 0.00 92 1012.0
20260505225736 48 32 0.0 3.0 0.00 0.00 0.00 91 1012.0
20260505225235 48 42 2.0 3.0 0.00 0.00 0.00 91 1012.0
20260505224735 48 317 2.0 3.0 0.00 0.00 0.00 90 1012.0
20260505224236 48 306 1.0 3.0 0.00 0.00 0.00 89 1012.0
20260505223736 48 302 2.0 4.0 0.00 0.00 0.00 89 1012.0
20260505223236 48 325 3.0 5.0 0.00 0.00 0.00 88 1012.0
20260505222735 48 49 3.0 4.0 0.00 0.00 0.00 89 1011.0
20260505222235 48 3 0.0 3.0 0.00 0.00 0.00 89 1012.0
20260505221735 48 14 0.0 2.0 0.00 0.00 0.00 89 1012.0
20260505221235 48 315 2.0 4.0 0.00 0.00 0.00 89 1012.0
20260505220735 48 43 4.0 4.0 0.00 0.00 0.00 89 1012.0
20260505220237 48 328 3.0 4.0 0.00 0.00 0.00 89 1012.0
20260505215735 48 336 3.0 4.0 0.00 0.00 0.00 90 1012.0
20260505215235 48 332 4.0 4.0 0.00 0.00 0.00 90 1012.0
20260505214735 48 326 2.0 4.0 0.00 0.00 0.00 89 1012.0
20260505214235 48 321 1.0 3.0 0.00 0.00 0.00 89 1012.0
20260505213736 48 257 1.0 5.0 0.00 0.00 0.00 89 1012.0
20260505213235 48 15 2.0 4.0 0.00 0.00 0.00 89 1012.0
20260505212735 48 348 2.0 3.0 0.00 0.00 0.00 89 1012.0
20260505212235 48 35 1.0 3.0 0.00 0.00 0.00 89 1012.0
20260505211735 47 80 0.0 6.0 0.00 0.00 0.00 89 1012.0
20260505211236 48 5 2.0 4.0 0.00 0.00 0.00 89 1012.0
20260505210735 48 32 1.0 4.0 0.00 0.00 0.00 89 1012.0
20260505210236 48 6 1.0 5.0 0.00 0.00 0.00 88 1012.0
20260505205736 48 312 0.0 3.0 0.00 0.00 0.00 89 1013.0
20260505205235 48 324 2.0 4.0 0.00 0.00 0.00 88 1012.0
20260505204735 48 337 2.0 4.0 0.00 0.00 0.00 87 1013.0
20260505204235 49 313 3.0 3.0 0.00 0.00 0.00 86 1012.0
20260505203738 49 132 1.0 4.0 0.00 0.00 0.00 84 1013.0
20260505203236 49 321 2.0 3.0 0.00 0.00 0.00 84 1013.0
20260505202735 49 19 3.0 6.0 0.00 0.00 0.00 83 1012.0
20260505202235 49 0 0.0 5.0 0.00 0.00 0.00 84 1012.0
20260505201736 48 307 3.0 4.0 0.00 0.00 0.00 84 1012.0
20260505201236 48 13 3.0 5.0 0.00 0.00 0.00 85 1012.0
20260505200735 48 276 4.0 4.0 0.00 0.00 0.00 84 1013.0
20260505200237 49 320 2.0 4.0 0.00 0.00 0.00 84 1013.0
20260505195735 49 305 4.0 6.0 0.00 0.00 0.00 83 1013.0
20260505195236 49 21 2.0 6.0 0.00 0.00 0.00 81 1013.0
20260505194735 49 314 3.0 4.0 0.00 0.00 0.00 80 1013.0
20260505194236 50 358 3.0 4.0 0.00 0.00 0.00 81 1013.0
20260505193735 50 333 5.0 7.0 0.00 0.00 0.00 79 1013.0
20260505193235 50 45 3.0 10.0 0.00 0.00 0.00 79 1013.0
20260505192735 50 320 6.0 7.0 0.00 0.00 0.00 78 1013.0
20260505192236 51 317 6.0 7.0 0.00 0.00 0.00 77 1013.0
20260505191735 51 133 3.0 5.0 0.00 0.00 0.00 78 1012.0
20260505191236 51 61 3.0 5.0 0.00 0.00 0.00 76 1012.0
20260505190736 51 31 1.0 10.0 0.00 0.00 0.00 74 1012.0
20260505190236 51 340 4.0 5.0 0.00 0.00 0.00 75 1012.0
20260505185735 52 336 6.0 7.0 0.00 0.00 0.00 75 1012.0
20260505185237 52 6 4.0 7.0 0.00 0.00 0.00 74 1012.0
20260505184736 52 12 3.0 5.0 0.00 0.00 0.00 76 1012.0
20260505184235 52 267 1.0 7.0 0.00 0.00 0.00 79 1012.0
20260505183737 52 65 2.0 4.0 0.00 0.00 0.00 78 1012.0
20260505183235 52 296 3.0 4.0 0.00 0.00 0.00 79 1013.0
20260505182736 52 303 1.0 2.0 0.00 0.00 0.00 78 1013.0
20260505182236 52 348 0.0 3.0 0.00 0.00 0.00 79 1012.0
20260505181735 52 324 3.0 4.0 0.00 0.00 0.00 80 1012.0
20260505181235 52 332 3.0 4.0 0.00 0.00 0.00 80 1013.0
20260505180735 52 319 0.0 4.0 0.00 0.00 0.00 78 1013.0
20260505180236 52 346 3.0 4.0 0.00 0.00 0.00 80 1013.0
20260505175736 52 341 3.0 4.0 0.00 0.00 0.00 79 1013.0
20260505175236 53 359 1.0 5.0 0.00 0.00 0.00 79 1013.0
20260505174736 53 340 4.0 6.0 0.00 0.00 0.00 81 1013.0
20260505174235 53 343 4.0 4.0 0.00 0.00 0.00 79 1013.0
20260505173735 53 313 2.0 4.0 0.00 0.00 0.00 77 1013.0
20260505173236 53 328 3.0 4.0 0.00 0.00 0.00 80 1013.0
20260505172736 53 330 3.0 4.0 0.00 0.00 0.00 81 1012.0
20260505172236 53 318 0.0 2.0 0.00 0.00 0.00 80 1013.0
20260505171735 53 310 2.0 3.0 0.00 0.00 0.00 78 1013.0
20260505171237 53 313 2.0 4.0 0.00 0.00 0.00 78 1013.0
20260505170735 53 309 3.0 4.0 0.00 0.00 0.00 77 1012.0
20260505170236 54 70 0.0 5.0 0.00 0.00 0.00 75 1012.0
20260505165736 54 10 1.0 3.0 0.00 0.00 0.00 75 1012.0
20260505165235 54 312 3.0 3.0 0.00 0.00 0.00 74 1012.0
20260505164735 54 27 1.0 5.0 0.00 0.00 0.00 71 1012.0
20260505164236 54 30 2.0 3.0 0.00 0.00 0.00 74 1012.0
20260505163737 54 0 2.0 3.0 0.00 0.00 0.00 70 1012.0
20260505163235 54 0 2.0 5.0 0.00 0.00 0.00 70 1012.0
20260505162735 54 49 0.0 5.0 0.00 0.00 0.00 70 1012.0
20260505162236 54 256 0.0 2.0 0.00 0.00 0.00 70 1012.0
20260505161736 54 355 2.0 3.0 0.00 0.00 0.00 71 1012.0
20260505161235 54 357 0.0 2.0 0.00 0.00 0.00 75 1012.0
20260505160736 54 30 1.0 3.0 0.00 0.00 0.00 72 1012.0
20260505160236 54 12 1.0 4.0 0.00 0.00 0.00 76 1012.0
20260505153240 53 69 1.0 2.0 0.00 0.00 0.00 78 1011.0
20260505152736 53 201 1.0 8.0 0.00 0.00 0.00 77 1011.0
20260505152235 52 22 5.0 5.0 0.00 0.00 0.00 77 1011.0
20260505151735 52 349 2.0 6.0 0.00 0.00 0.00 79 1011.0
20260505151236 52 336 3.0 6.0 0.00 0.00 0.00 81 1011.0
20260505150735 51 50 5.0 9.0 0.00 0.00 0.00 78 1011.0
20260505150236 51 354 4.0 6.0 0.00 0.00 0.00 78 1011.0
20260505140237 50 299 2.0 5.0 0.00 0.00 0.00 87 1010.0
20260505130236 48 326 2.0 7.0 0.00 0.00 0.00 90 1010.0
20260505124736 49 107 2.0 7.0 0.00 0.00 0.00 90 1012.0
20260505124235 49 288 3.0 8.0 0.00 0.00 0.00 90 1012.0
20260505123739 49 301 4.0 9.0 0.00 0.00 0.00 89 1012.0
20260505123235 50 301 3.0 7.0 0.00 0.00 0.00 88 1012.0
20260505122736 50 346 5.0 8.0 0.00 0.00 0.00 87 1011.0
20260505122235 50 341 3.0 7.0 0.00 0.00 0.00 86 1011.0
20260505121735 50 14 3.0 7.0 0.00 0.00 0.00 87 1011.0
20260505121236 50 292 3.0 8.0 0.00 0.00 0.00 90 1011.0
20260505120735 51 296 5.0 7.0 0.00 0.00 0.00 89 1011.0
20260505120236 51 322 6.0 11.0 0.00 0.00 0.00 89 1010.0
20260505115737 51 310 8.0 9.0 0.00 0.00 0.00 88 1011.0
20260505115236 52 294 6.0 8.0 0.00 0.00 0.00 86 1010.0
20260505114735 53 358 3.0 9.0 0.00 0.00 0.00 86 1010.0
20260505114236 53 342 9.0 10.0 0.00 0.00 0.00 84 1010.0
20260505113735 53 336 4.0 5.0 0.00 0.00 0.00 83 1010.0
20260505113236 53 249 2.0 2.0 0.00 0.00 0.00 83 1010.0
20260505112735 53 300 3.0 4.0 0.00 0.00 0.00 84 1009.0
20260505112235 53 332 2.0 4.0 0.00 0.00 0.00 85 1009.0
20260505111737 54 319 2.0 3.0 0.00 0.00 0.00 81 1009.0
20260505111236 54 311 1.0 6.0 0.00 0.00 0.00 81 1009.0